[[{"header":{"parameterUnit":"m.s-1","parameterCategory":1,"la1":30.2992,"la2":30.254,"lo1":-89.0895,"lo2":-89.0443,"dy":0.0025,"dx":0.0025,"nx":19,"ny":19,"refTime":"2026-04-19T21:00:00:Z","depth":0,"parameterNumber":2,"parameterNumberName":"U-component_of_WINDS"},"data":[0,0,0,-5.1579,-5.1583,-5.1756,-5.1756,-5.2036,-5.2039,0,0,0,0,0,0,0,0,0,0,0,-5.1563,-5.1566,-5.1578,-5.1584,-5.1756,-5.1756,-5.2036,-5.2039,0,0,0,0,0,0,0,0,0,0,0,-5.1562,-5.1565,-5.1569,-5.1584,-5.1756,-5.1756,-5.2035,-5.1884,0,0,0,0,0,0,0,0,0,0,-5.1706,-5.1726,-5.1564,-5.1569,-5.1586,-5.1756,-5.1756,-5.1876,-5.1894,-5.1984,0,-5.2072,0,-5.2061,-5.2062,-5.2063,0,0,0,-5.1558,-5.1712,-5.1726,-5.157,-5.1588,-5.1756,-5.1671,-5.1885,-5.1905,-5.2008,-5.2076,-5.2085,-5.2065,-5.2064,-5.2066,-5.2672,-5.2676,0,0,-5.1548,-5.1613,-5.1713,-5.1741,-5.1717,-5.1665,-5.1677,-5.1896,-5.1976,-5.2077,-5.209,-5.207,-5.2066,-5.2069,-5.2668,-5.2673,0,0,0,-5.1538,-5.1608,-5.1615,-5.1731,-5.1758,-5.1671,-5.1684,-5.1966,-5.1962,-5.2093,-5.2073,-5.2068,-5.2072,-5.2664,-5.267,-5.2936,0,0,0,-5.1531,-5.1602,-5.1613,-5.1655,-5.1755,-5.1864,-5.175,-5.1947,-5.197,-5.2072,-5.2068,-5.2076,-5.2659,-5.2667,-5.2919,-5.3053,0,0,0,-5.154,-5.1602,-5.1639,-5.1658,-5.1734,-5.1858,-5.1867,-5.1951,-5.196,-5.2063,-5.2077,-5.2656,-5.2666,-5.2904,-5.3027,-5.3234,0,0,0,-5.1568,-5.1873,-5.1645,-5.1978,-5.1733,-5.2021,-5.1865,-5.2076,-5.2196,-5.207,-5.266,-5.2669,-5.2899,-5.3012,-5.3218,-5.3422,-5.3512,0,0,-5.199,-5.1926,-5.2117,-5.1918,-5.2263,-5.1989,-5.2374,-5.2422,-5.2371,-5.2575,-5.2589,-5.2925,-5.3026,-5.323,-5.3988,-5.406,0,0,0,-5.2273,-5.2412,-5.2488,-5.2606,-5.265,-5.2699,-5.2681,-5.2698,-5.2868,-5.2489,-5.3051,-5.3109,-5.3227,-5.3321,-5.3383,-5.3481,-5.2715,-5.2714,-5.2713,-5.2967,-5.2885,-5.3196,-5.3137,-5.3253,-5.3231,-5.3318,-5.3338,-5.3222,-5.3356,-5.3418,-5.3887,-5.4,-5.4046,-5.4149,-5.3515,-5.3516,-5.3517,-5.3518,-5.358,-5.3765,-5.3602,-5.3846,-5.3759,-5.3963,-5.3954,-5.3865,-5.4044,-5.3834,-5.3933,-5.3715,-5.4128,-5.4214,-5.3537,-5.3534,-5.3531,-5.3529,-5.3528,-5.4029,-5.4103,-5.4119,-5.4281,-5.4415,-5.4342,-5.4522,-5.4434,-5.4353,-5.4451,-5.4509,-5.4504,-5.4492,-5.4484,-5.4486,-5.4487,-5.4489,-5.449,-5.4491,-5.449,-5.4498,-5.466,-5.4732,-5.4796,-5.487,-5.4851,-5.4912,-5.4958,-5.488,-5.488,-5.4754,-5.4181,-5.4042,-5.4516,-5.4511,-5.4508,-5.4506,-5.4504,-5.5149,-5.4986,-5.5236,-5.5301,-5.5378,-5.5519,-5.5403,-5.5536,-5.5574,-5.5666,-5.5516,-5.5106,-5.5035,-5.4986,-5.487,-5.553,-5.553,-5.553,-5.5531,-5.5531,-5.5485,-5.5722,-5.5831,-5.5928,-5.585,-5.6137,-5.6125,-5.6087,-5.6106,-5.5996,-5.5834,-5.5787,-5.5744,-5.5678,-5.5569,-5.6393,-5.6393,-5.6394,-5.5933,-5.5893,-5.6155,-5.6114,-5.6168,-5.6217,-5.6485,-5.6619,-5.6541,-5.6427,-5.612,-5.6083,-5.5819,-5.5737,-5.5621,-5.5521,-5.5318,0,0]},{"header":{"parameterUnit":"m.s-1","parameterCategory":1,"la1":30.2992,"la2":30.254,"lo1":-89.0895,"lo2":-89.0443,"dy":0.0025,"dx":0.0025,"nx":19,"ny":19,"refTime":"2026-04-19T21:00:00:Z","depth":0,"parameterNumber":3,"parameterNumberName":"V-component_of_WINDS"},"data":[0,0,0,-1.3054,-1.3054,-1.3083,-1.3083,-1.3109,-1.3109,0,0,0,0,0,0,0,0,0,0,0,-1.304,-1.304,-1.3054,-1.3054,-1.3083,-1.3083,-1.3109,-1.3109,0,0,0,0,0,0,0,0,0,0,0,-1.304,-1.304,-1.304,-1.3054,-1.3083,-1.3083,-1.3109,-1.3091,0,0,0,0,0,0,0,0,0,0,-1.3064,-1.3048,-1.304,-1.304,-1.3054,-1.3083,-1.3083,-1.309,-1.3092,-1.3091,0,-1.3091,0,-1.3101,-1.311,-1.311,0,0,0,-1.3058,-1.3046,-1.3058,-1.304,-1.3055,-1.3083,-1.3071,-1.3091,-1.3093,-1.3094,-1.3092,-1.3093,-1.3101,-1.311,-1.311,-1.3099,-1.3099,0,0,-1.3056,-1.3043,-1.3057,-1.3059,-1.3056,-1.307,-1.3072,-1.3092,-1.3089,-1.3092,-1.3094,-1.3101,-1.311,-1.311,-1.31,-1.3099,0,0,0,-1.3049,-1.3041,-1.3053,-1.3058,-1.3064,-1.3071,-1.3073,-1.3088,-1.3093,-1.3094,-1.3102,-1.311,-1.3111,-1.31,-1.3099,-1.3075,0,0,0,-1.3048,-1.3037,-1.3052,-1.3044,-1.3064,-1.3077,-1.3068,-1.3092,-1.3094,-1.3102,-1.311,-1.3111,-1.31,-1.31,-1.3076,-1.3065,0,0,0,-1.304,-1.3036,-1.3039,-1.3044,-1.3056,-1.3077,-1.3083,-1.3093,-1.3099,-1.311,-1.3111,-1.31,-1.31,-1.3077,-1.3067,-1.3057,0,0,0,-1.3027,-1.3018,-1.3038,-1.3031,-1.3055,-1.3062,-1.3083,-1.3089,-1.3096,-1.3111,-1.31,-1.31,-1.3078,-1.3068,-1.3058,-1.3045,-1.3039,0,0,-1.3008,-1.3015,-1.3011,-1.3031,-1.303,-1.3059,-1.3054,-1.3074,-1.3087,-1.3094,-1.3094,-1.3076,-1.3067,-1.3057,-1.3011,-1.3006,0,0,0,-1.3001,-1.2998,-1.3,-1.3007,-1.3021,-1.3031,-1.3053,-1.3059,-1.3066,-1.3088,-1.3071,-1.3066,-1.306,-1.3055,-1.305,-1.3045,-1.3097,-1.3097,-1.3097,-1.2954,-1.2971,-1.2965,-1.2985,-1.299,-1.3011,-1.3016,-1.3028,-1.3045,-1.304,-1.3042,-1.3012,-1.3005,-1.3002,-1.2996,-1.3038,-1.3038,-1.3038,-1.3038,-1.2926,-1.2923,-1.2944,-1.2946,-1.2963,-1.2964,-1.2983,-1.2994,-1.2996,-1.3013,-1.3009,-1.3024,-1.2996,-1.2992,-1.3036,-1.3036,-1.3036,-1.3037,-1.3037,-1.2896,-1.2897,-1.2906,-1.2914,-1.2918,-1.2939,-1.2939,-1.2955,-1.297,-1.2967,-1.2969,-1.2969,-1.297,-1.2967,-1.2967,-1.2966,-1.2966,-1.2966,-1.2966,-1.2861,-1.2871,-1.287,-1.2883,-1.2887,-1.2895,-1.2914,-1.2919,-1.2927,-1.2939,-1.2939,-1.2954,-1.2991,-1.2998,-1.2965,-1.2965,-1.2965,-1.2965,-1.2965,-1.2824,-1.2835,-1.2833,-1.2838,-1.2852,-1.2853,-1.2874,-1.2881,-1.2887,-1.2886,-1.2901,-1.2927,-1.2935,-1.2938,-1.2945,-1.2899,-1.2899,-1.2899,-1.2899,-1.2798,-1.2804,-1.2804,-1.281,-1.2817,-1.2834,-1.2829,-1.2842,-1.2858,-1.2862,-1.2871,-1.2882,-1.2884,-1.2891,-1.2896,-1.2902,-1.2846,-1.2846,-1.2846,-1.2775,-1.2782,-1.2776,-1.2791,-1.2803,-1.2812,-1.2807,-1.281,-1.2831,-1.2844,-1.2865,-1.2867,-1.2884,-1.2889,-1.2903,-1.291,-1.2921,0,0]}]]